To NAV CANADA Home Page Login to a new session Search on AWWS site Feedback and Comments Disclaimer Vers la page française équivalente Tips FAQ What's new on the site To the Forecasts and Observations / NOTAM section To "File a Flight Plan" website Publications and other links Update of the User's profile FIC Telephone Numbers My Weather Data Folder Route Weather Data Regional Weather Data Local Weather Data To the Forecasts and Observations / NOTAM section
Request Generated 05/29/2015 at 13:55:33 UTC . Weather information available at that time is displayed.

METAR/TAF

KANGIQSUALUJJUAQ/KANGIQSUALUJJUAQ (GEORGES RIVER)/QC    

METAR CYLU 291300Z 27010G18KT 250V310 15SM FEW015 BKN020 OVC030 M02/M05 A3021 RMK SC2SC5SC2 SLP237=
METAR CYLU 291200Z 29010G18KT 15SM FEW015 BKN020 OVC030 M02/M07 A3021 RMK SC2SC4SC2 SLP234=

CYLU - No TAF is issued for this station

Your time UTC time
Weather data provided by Environment Canada and NAV CANADA